| time (UTC) | temp F | wind direction | speed MPH | gust MPH | rain 1hr in | rain 24hr in | rain mn in | humidity % | barometer mb |
| 20260503222052 | 76 | 0 | 1.0 | 12.0 | 0.00 | 0.00 | 0.00 | 37 | 1016.1 |
| 20260503221557 | 76 | 0 | 0.0 | 16.0 | 0.00 | 0.00 | 0.00 | 39 | 1016.1 |
| 20260503221055 | 77 | 236 | 8.0 | 16.0 | 0.00 | 0.00 | 0.00 | 37 | 1016.2 |
| 20260503220552 | 77 | 0 | 0.0 | 11.0 | 0.00 | 0.00 | 0.00 | 37 | 1016.1 |
| 20260503220057 | 76 | 0 | 2.0 | 16.0 | 0.00 | 0.00 | 0.00 | 37 | 1016.1 |
| 20260503215551 | 76 | 0 | 1.0 | 18.0 | 0.00 | 0.00 | 0.00 | 39 | 1016.3 |
| 20260503215051 | 76 | 250 | 11.0 | 18.0 | 0.00 | 0.00 | 0.00 | 37 | 1016.4 |
| 20260503214555 | 76 | 230 | 7.0 | 16.0 | 0.00 | 0.00 | 0.00 | 38 | 1016.5 |
| 20260503214052 | 76 | 212 | 0.0 | 11.0 | 0.00 | 0.00 | 0.00 | 40 | 1016.4 |
| 20260503213552 | 76 | 0 | 4.0 | 13.0 | 0.00 | 0.00 | 0.00 | 37 | 1016.4 |
| 20260503213100 | 76 | 0 | 6.0 | 13.0 | 0.00 | 0.00 | 0.00 | 40 | 1016.5 |
| 20260503212558 | 76 | 242 | 3.0 | 18.0 | 0.00 | 0.00 | 0.00 | 39 | 1016.6 |
| 20260503212055 | 76 | 308 | 0.0 | 18.0 | 0.00 | 0.00 | 0.00 | 38 | 1016.6 |
| 20260503211615 | 75 | 286 | 9.0 | 18.0 | 0.00 | 0.00 | 0.00 | 37 | 1016.7 |
| 20260503211052 | 75 | 0 | 5.0 | 18.0 | 0.00 | 0.00 | 0.00 | 38 | 1016.8 |
| 20260503210555 | 75 | 271 | 9.0 | 15.0 | 0.00 | 0.00 | 0.00 | 39 | 1016.9 |
| 20260503210056 | 75 | 255 | 0.0 | 13.0 | 0.00 | 0.00 | 0.00 | 38 | 1016.9 |
| 20260503205552 | 75 | 0 | 2.0 | 18.0 | 0.00 | 0.00 | 0.00 | 37 | 1016.9 |
| 20260503205053 | 74 | 234 | 8.0 | 19.0 | 0.00 | 0.00 | 0.00 | 37 | 1017.1 |
| 20260503204555 | 75 | 253 | 10.0 | 19.0 | 0.00 | 0.00 | 0.00 | 38 | 1017.2 |
| 20260503204056 | 75 | 294 | 6.0 | 20.0 | 0.00 | 0.00 | 0.00 | 36 | 1017.3 |
| 20260503203555 | 75 | 244 | 15.0 | 20.0 | 0.00 | 0.00 | 0.00 | 38 | 1017.5 |
| 20260503203114 | 75 | 283 | 11.0 | 16.0 | 0.00 | 0.00 | 0.00 | 37 | 1017.5 |
| 20260503202555 | 75 | 0 | 7.0 | 18.0 | 0.00 | 0.00 | 0.00 | 38 | 1017.6 |
| 20260503202059 | 75 | 0 | 1.0 | 19.0 | 0.00 | 0.00 | 0.00 | 39 | 1017.6 |
| 20260503201558 | 75 | 259 | 11.0 | 19.0 | 0.00 | 0.00 | 0.00 | 39 | 1017.9 |
| 20260503201055 | 74 | 0 | 1.0 | 15.0 | 0.00 | 0.00 | 0.00 | 38 | 1017.9 |
| 20260503200559 | 74 | 243 | 9.0 | 15.0 | 0.00 | 0.00 | 0.00 | 39 | 1018.0 |
| 20260503200057 | 74 | 229 | 8.0 | 20.0 | 0.00 | 0.00 | 0.00 | 40 | 1018.0 |
| 20260503195555 | 74 | 281 | 2.0 | 20.0 | 0.00 | 0.00 | 0.00 | 40 | 1018.2 |
| 20260503195056 | 74 | 264 | 15.0 | 20.0 | 0.00 | 0.00 | 0.00 | 38 | 1018.3 |
| 20260503194558 | 74 | 269 | 5.0 | 21.0 | 0.00 | 0.00 | 0.00 | 38 | 1018.3 |
| 20260503194055 | 74 | 293 | 7.0 | 21.0 | 0.00 | 0.00 | 0.00 | 38 | 1018.5 |
| 20260503193056 | 74 | 279 | 3.0 | 13.0 | 0.00 | 0.00 | 0.00 | 40 | 1018.7 |
| 20260503192554 | 73 | 262 | 5.0 | 13.0 | 0.00 | 0.00 | 0.00 | 40 | 1018.7 |
| 20260503192052 | 73 | 0 | 7.0 | 16.0 | 0.00 | 0.00 | 0.00 | 38 | 1018.7 |
| 20260503191553 | 73 | 262 | 10.0 | 16.0 | 0.00 | 0.00 | 0.00 | 40 | 1018.7 |
| 20260503191055 | 73 | 276 | 6.0 | 13.0 | 0.00 | 0.00 | 0.00 | 38 | 1018.8 |
| 20260503190551 | 73 | 360 | 5.0 | 15.0 | 0.00 | 0.00 | 0.00 | 38 | 1018.8 |
| 20260503190053 | 73 | 318 | 9.0 | 19.0 | 0.00 | 0.00 | 0.00 | 36 | 1018.9 |
| 20260503185551 | 73 | 266 | 10.0 | 19.0 | 0.00 | 0.00 | 0.00 | 37 | 1019.1 |
| 20260503185052 | 73 | 0 | 8.0 | 19.0 | 0.00 | 0.00 | 0.00 | 36 | 1019.0 |
| 20260503184556 | 73 | 0 | 4.0 | 18.0 | 0.00 | 0.00 | 0.00 | 38 | 1019.1 |
| 20260503184057 | 73 | 286 | 8.0 | 18.0 | 0.00 | 0.00 | 0.00 | 36 | 1019.1 |
| 20260503183552 | 73 | 283 | 9.0 | 15.0 | 0.00 | 0.00 | 0.00 | 34 | 1019.2 |
| 20260503183053 | 73 | 0 | 1.0 | 11.0 | 0.00 | 0.00 | 0.00 | 35 | 1019.3 |
| 20260503182552 | 73 | 0 | 3.0 | 11.0 | 0.00 | 0.00 | 0.00 | 35 | 1019.3 |
| 20260503182056 | 72 | 0 | 0.0 | 10.0 | 0.00 | 0.00 | 0.00 | 35 | 1019.5 |
| 20260503181602 | 72 | 0 | 3.0 | 15.0 | 0.00 | 0.00 | 0.00 | 36 | 1019.5 |
| 20260503181053 | 72 | 0 | 4.0 | 15.0 | 0.00 | 0.00 | 0.00 | 35 | 1019.6 |
| 20260503180552 | 73 | 269 | 5.0 | 13.0 | 0.00 | 0.00 | 0.00 | 38 | 1019.6 |
| 20260503180059 | 73 | 0 | 0.0 | 14.0 | 0.00 | 0.00 | 0.00 | 35 | 1019.7 |
| 20260503175553 | 72 | 221 | 0.0 | 14.0 | 0.00 | 0.00 | 0.00 | 39 | 1019.8 |
| 20260503175053 | 72 | 276 | 9.0 | 14.0 | 0.00 | 0.00 | 0.00 | 37 | 1020.0 |
| 20260503174055 | 71 | 0 | 2.0 | 15.0 | 0.00 | 0.00 | 0.00 | 39 | 1020.1 |
| 20260503173553 | 71 | 0 | 4.0 | 15.0 | 0.00 | 0.00 | 0.00 | 38 | 1020.2 |
| 20260503173100 | 71 | 231 | 4.0 | 15.0 | 0.00 | 0.00 | 0.00 | 38 | 1020.2 |
| 20260503172553 | 71 | 149 | 0.0 | 11.0 | 0.00 | 0.00 | 0.00 | 42 | 1020.2 |
| 20260503172052 | 71 | 151 | 1.0 | 13.0 | 0.00 | 0.00 | 0.00 | 40 | 1020.3 |
| 20260503171554 | 71 | 0 | 2.0 | 13.0 | 0.00 | 0.00 | 0.00 | 41 | 1020.3 |
| 20260503171052 | 71 | 0 | 4.0 | 13.0 | 0.00 | 0.00 | 0.00 | 42 | 1020.5 |
| 20260503170553 | 70 | 0 | 1.0 | 10.0 | 0.00 | 0.00 | 0.00 | 44 | 1020.5 |
| 20260503150552 | 64 | 164 | 5.0 | 13.0 | 0.00 | 0.00 | 0.00 | 50 | 1021.6 |
| 20260503131056 | 56 | 127 | 8.0 | 12.0 | 0.00 | 0.00 | 0.00 | 67 | 1021.5 |
| 20260503130552 | 56 | 110 | 8.0 | 11.0 | 0.00 | 0.00 | 0.00 | 69 | 1021.4 |
| 20260503120103 | 50 | 0 | 0.0 | 0.0 | 0.00 | 0.00 | 0.00 | 83 | 1021.1 |
| 20260503110555 | 49 | 0 | 0.0 | 0.0 | 0.00 | 0.00 | 0.00 | 83 | 1020.5 |
| 20260503100104 | 50 | 0 | 0.0 | 0.0 | 0.00 | 0.00 | 0.00 | 81 | 1019.8 |
| 20260503081553 | 53 | 64 | 4.0 | 7.0 | 0.00 | 0.00 | 0.00 | 73 | 1019.4 |
| 20260503081055 | 53 | 83 | 3.0 | 7.0 | 0.00 | 0.00 | 0.00 | 73 | 1019.3 |
| 20260503080555 | 53 | 68 | 0.0 | 5.0 | 0.00 | 0.00 | 0.00 | 72 | 1019.3 |
| 20260503072552 | 55 | 0 | 0.0 | 3.0 | 0.00 | 0.00 | 0.00 | 67 | 1019.1 |
| 20260503072053 | 55 | 0 | 0.0 | 0.0 | 0.00 | 0.00 | 0.00 | 67 | 1019.2 |
| 20260503071604 | 55 | 0 | 0.0 | 5.0 | 0.00 | 0.00 | 0.00 | 67 | 1019.2 |
| 20260503071052 | 55 | 0 | 0.0 | 5.0 | 0.00 | 0.00 | 0.00 | 67 | 1019.2 |
| 20260503070555 | 54 | 0 | 0.0 | 2.0 | 0.00 | 0.00 | 0.00 | 69 | 1019.2 |
| 20260503070105 | 54 | 0 | 0.0 | 0.0 | 0.00 | 0.00 | 0.00 | 71 | 1019.3 |
| 20260503060107 | 55 | 0 | 0.0 | 0.0 | 0.00 | 0.00 | 0.00 | 74 | 1019.1 |
| 20260503055052 | 55 | 0 | 0.0 | 0.0 | 0.00 | 0.00 | 0.00 | 75 | 1019.0 |
| 20260503054555 | 55 | 0 | 0.0 | 0.0 | 0.00 | 0.00 | 0.00 | 75 | 1018.9 |
| 20260503054053 | 55 | 0 | 0.0 | 0.0 | 0.00 | 0.00 | 0.00 | 74 | 1018.9 |
| 20260503053553 | 55 | 0 | 0.0 | 0.0 | 0.00 | 0.00 | 0.00 | 73 | 1018.9 |
| 20260503053051 | 55 | 0 | 0.0 | 0.0 | 0.00 | 0.00 | 0.00 | 73 | 1018.7 |
| 20260503052552 | 55 | 0 | 0.0 | 0.0 | 0.00 | 0.00 | 0.00 | 73 | 1018.9 |
| 20260503052052 | 55 | 0 | 0.0 | 0.0 | 0.00 | 0.00 | 0.00 | 74 | 1018.7 |
| 20260503051552 | 55 | 0 | 0.0 | 0.0 | 0.00 | 0.00 | 0.00 | 74 | 1018.6 |
| 20260503051051 | 55 | 0 | 0.0 | 0.0 | 0.00 | 0.00 | 0.00 | 74 | 1018.7 |
| 20260503050556 | 56 | 0 | 0.0 | 0.0 | 0.00 | 0.00 | 0.00 | 74 | 1018.7 |
| 20260503050053 | 56 | 0 | 0.0 | 0.0 | 0.00 | 0.00 | 0.00 | 72 | 1018.7 |
| 20260503045552 | 56 | 0 | 0.0 | 0.0 | 0.00 | 0.00 | 0.00 | 71 | 1018.6 |
| 20260503045053 | 56 | 0 | 0.0 | 0.0 | 0.00 | 0.00 | 0.00 | 71 | 1018.6 |
| 20260503044601 | 56 | 0 | 0.0 | 0.0 | 0.00 | 0.00 | 0.00 | 73 | 1018.6 |
| 20260503044052 | 57 | 0 | 0.0 | 0.0 | 0.00 | 0.00 | 0.00 | 71 | 1018.6 |
| 20260503043552 | 57 | 0 | 0.0 | 0.0 | 0.00 | 0.00 | 0.00 | 70 | 1018.6 |
| 20260503043103 | 58 | 0 | 0.0 | 0.0 | 0.00 | 0.00 | 0.00 | 67 | 1018.6 |
| 20260503042552 | 58 | 0 | 0.0 | 0.0 | 0.00 | 0.00 | 0.00 | 67 | 1018.6 |
| 20260503042052 | 58 | 0 | 0.0 | 0.0 | 0.00 | 0.00 | 0.00 | 67 | 1018.6 |
| 20260503041554 | 58 | 0 | 0.0 | 0.0 | 0.00 | 0.00 | 0.00 | 66 | 1018.5 |
| 20260503041051 | 58 | 0 | 0.0 | 0.0 | 0.00 | 0.00 | 0.00 | 66 | 1018.4 |
| 20260503040551 | 58 | 0 | 0.0 | 0.0 | 0.00 | 0.00 | 0.00 | 65 | 1018.4 |
| 20260503040055 | 58 | 0 | 0.0 | 0.0 | 0.00 | 0.00 | 0.00 | 65 | 1018.4 |
| 20260503035552 | 58 | 0 | 0.0 | 0.0 | 0.00 | 0.00 | 0.00 | 65 | 1018.4 |
| 20260503035052 | 58 | 0 | 0.0 | 0.0 | 0.00 | 0.00 | 0.00 | 65 | 1018.3 |
| 20260503034555 | 58 | 0 | 0.0 | 0.0 | 0.00 | 0.00 | 0.00 | 64 | 1018.3 |
| 20260503034055 | 59 | 0 | 0.0 | 0.0 | 0.00 | 0.00 | 0.00 | 63 | 1018.4 |
| 20260503033553 | 60 | 0 | 0.0 | 0.0 | 0.00 | 0.00 | 0.00 | 61 | 1018.3 |
| 20260503033107 | 60 | 0 | 0.0 | 0.0 | 0.00 | 0.00 | 0.00 | 59 | 1018.3 |
| 20260503032553 | 60 | 0 | 0.0 | 0.0 | 0.00 | 0.00 | 0.00 | 60 | 1018.3 |
| 20260503032055 | 60 | 0 | 0.0 | 0.0 | 0.00 | 0.00 | 0.00 | 60 | 1018.2 |
| 20260503031552 | 60 | 0 | 0.0 | 0.0 | 0.00 | 0.00 | 0.00 | 60 | 1018.2 |
| 20260503031052 | 60 | 0 | 0.0 | 0.0 | 0.00 | 0.00 | 0.00 | 60 | 1018.2 |
| 20260503030552 | 60 | 0 | 0.0 | 0.0 | 0.00 | 0.00 | 0.00 | 61 | 1018.2 |
| 20260503030056 | 60 | 0 | 0.0 | 0.0 | 0.00 | 0.00 | 0.00 | 61 | 1018.2 |
| 20260503025554 | 61 | 0 | 0.0 | 0.0 | 0.00 | 0.00 | 0.00 | 59 | 1018.2 |
| 20260503025053 | 61 | 0 | 0.0 | 0.0 | 0.00 | 0.00 | 0.00 | 57 | 1018.2 |
| 20260503024554 | 62 | 0 | 0.0 | 0.0 | 0.00 | 0.00 | 0.00 | 58 | 1018.3 |
| 20260503024053 | 62 | 0 | 0.0 | 0.0 | 0.00 | 0.00 | 0.00 | 55 | 1018.2 |
| 20260503023556 | 62 | 0 | 0.0 | 0.0 | 0.00 | 0.00 | 0.00 | 55 | 1018.1 |
| 20260503023100 | 63 | 0 | 0.0 | 0.0 | 0.00 | 0.00 | 0.00 | 54 | 1018.0 |
| 20260503022552 | 63 | 0 | 0.0 | 0.0 | 0.00 | 0.00 | 0.00 | 53 | 1018.0 |
| 20260503022054 | 63 | 0 | 0.0 | 0.0 | 0.00 | 0.00 | 0.00 | 52 | 1018.0 |
| 20260503021556 | 63 | 0 | 0.0 | 0.0 | 0.00 | 0.00 | 0.00 | 52 | 1017.8 |
| 20260503021053 | 63 | 0 | 0.0 | 0.0 | 0.00 | 0.00 | 0.00 | 52 | 1017.7 |
| 20260503020554 | 64 | 0 | 0.0 | 0.0 | 0.00 | 0.00 | 0.00 | 51 | 1017.7 |
| 20260503020055 | 64 | 0 | 0.0 | 0.0 | 0.00 | 0.00 | 0.00 | 51 | 1017.8 |
| 20260503015554 | 64 | 0 | 0.0 | 0.0 | 0.00 | 0.00 | 0.00 | 51 | 1017.7 |
| 20260503015053 | 64 | 0 | 0.0 | 0.0 | 0.00 | 0.00 | 0.00 | 51 | 1017.6 |
| 20260503014554 | 64 | 0 | 0.0 | 0.0 | 0.00 | 0.00 | 0.00 | 50 | 1017.7 |
| 20260503014053 | 64 | 0 | 0.0 | 0.0 | 0.00 | 0.00 | 0.00 | 50 | 1017.6 |
| 20260503013552 | 64 | 0 | 0.0 | 0.0 | 0.00 | 0.00 | 0.00 | 50 | 1017.7 |
| 20260503013104 | 64 | 0 | 0.0 | 0.0 | 0.00 | 0.00 | 0.00 | 50 | 1017.6 |
| 20260503012555 | 65 | 0 | 0.0 | 0.0 | 0.00 | 0.00 | 0.00 | 51 | 1017.5 |
| 20260503012051 | 64 | 0 | 0.0 | 0.0 | 0.00 | 0.00 | 0.00 | 51 | 1017.4 |
| 20260503011604 | 64 | 0 | 0.0 | 0.0 | 0.00 | 0.00 | 0.00 | 52 | 1017.3 |
| 20260503011055 | 65 | 0 | 0.0 | 0.0 | 0.00 | 0.00 | 0.00 | 52 | 1017.2 |
| 20260503010554 | 65 | 0 | 0.0 | 0.0 | 0.00 | 0.00 | 0.00 | 52 | 1017.3 |
| 20260503010057 | 65 | 0 | 0.0 | 0.0 | 0.00 | 0.00 | 0.00 | 52 | 1017.2 |
| 20260503005558 | 65 | 0 | 0.0 | 0.0 | 0.00 | 0.00 | 0.00 | 51 | 1017.1 |
| 20260503005053 | 65 | 0 | 0.0 | 0.0 | 0.00 | 0.00 | 0.00 | 50 | 1017.1 |
| 20260503004553 | 66 | 0 | 0.0 | 0.0 | 0.00 | 0.00 | 0.00 | 49 | 1017.1 |
| 20260503004052 | 66 | 0 | 0.0 | 0.0 | 0.00 | 0.00 | 0.00 | 48 | 1017.0 |
| 20260503003552 | 67 | 0 | 0.0 | 0.0 | 0.00 | 0.00 | 0.00 | 46 | 1016.9 |
| 20260503003104 | 68 | 0 | 0.0 | 8.0 | 0.00 | 0.00 | 0.00 | 45 | 1017.0 |
| 20260503002552 | 68 | 0 | 0.0 | 10.0 | 0.00 | 0.00 | 0.00 | 44 | 1016.9 |
| 20260503002052 | 68 | 0 | 1.0 | 10.0 | 0.00 | 0.00 | 0.00 | 42 | 1016.7 |
| 20260503001552 | 69 | 0 | 3.0 | 11.0 | 0.00 | 0.00 | 0.00 | 43 | 1016.6 |
| 20260503001053 | 69 | 0 | 0.0 | 11.0 | 0.00 | 0.00 | 0.00 | 42 | 1016.5 |
| 20260503000552 | 69 | 314 | 0.0 | 13.0 | 0.00 | 0.00 | 0.00 | 41 | 1016.6 |
| 20260503000108 | 69 | 317 | 3.0 | 13.0 | 0.00 | 0.00 | 0.00 | 41 | 1016.6 |
| 20260502235555 | 69 | 313 | 4.0 | 13.0 | 0.00 | 0.00 | 0.00 | 40 | 1016.5 |
| 20260502235056 | 69 | 313 | 8.0 | 17.0 | 0.00 | 0.00 | 0.00 | 39 | 1016.4 |
| 20260502234558 | 69 | 0 | 7.0 | 19.0 | 0.00 | 0.00 | 0.00 | 38 | 1016.4 |
| 20260502234057 | 69 | 304 | 10.0 | 19.0 | 0.00 | 0.00 | 0.00 | 37 | 1016.6 |
| 20260502233556 | 70 | 307 | 8.0 | 15.0 | 0.00 | 0.00 | 0.00 | 37 | 1016.5 |
| 20260502233100 | 70 | 307 | 6.0 | 19.0 | 0.00 | 0.00 | 0.00 | 36 | 1016.6 |
| 20260502232556 | 70 | 0 | 8.0 | 19.0 | 0.00 | 0.00 | 0.00 | 39 | 1016.5 |
| 20260502232053 | 70 | 316 | 5.0 | 17.0 | 0.00 | 0.00 | 0.00 | 39 | 1016.4 |
| 20260502231603 | 70 | 309 | 8.0 | 18.0 | 0.00 | 0.00 | 0.00 | 38 | 1016.5 |
| 20260502231056 | 70 | 285 | 12.0 | 18.0 | 0.00 | 0.00 | 0.00 | 38 | 1016.5 |
| 20260502230556 | 70 | 309 | 8.0 | 18.0 | 0.00 | 0.00 | 0.00 | 38 | 1016.5 |
| 20260502230111 | 70 | 291 | 9.0 | 19.0 | 0.00 | 0.00 | 0.00 | 38 | 1016.6 |
| 20260502225553 | 70 | 297 | 11.0 | 19.0 | 0.00 | 0.00 | 0.00 | 38 | 1016.5 |
| 20260502225056 | 70 | 281 | 7.0 | 20.0 | 0.00 | 0.00 | 0.00 | 38 | 1016.5 |
| 20260502224557 | 70 | 291 | 12.0 | 20.0 | 0.00 | 0.00 | 0.00 | 37 | 1016.5 |
| 20260502224053 | 70 | 315 | 8.0 | 18.0 | 0.00 | 0.00 | 0.00 | 37 | 1016.6 |
| 20260502223556 | 70 | 302 | 13.0 | 18.0 | 0.00 | 0.00 | 0.00 | 38 | 1016.5 |
| 20260502223058 | 71 | 304 | 7.0 | 20.0 | 0.00 | 0.00 | 0.00 | 37 | 1016.6 |
| 20260502222556 | 71 | 283 | 6.0 | 20.0 | 0.00 | 0.00 | 0.00 | 38 | 1016.6 |